• In United Kingdom
  • List of Countries
  • For 7 days
  • Water Temperature
  • Satellite Maps
  • Weather Map
  • Weather Widgets
  • user-avatar
    Login

    Hourly Weather Tarin Kowt

    Today, 23 October, Tuesday

    Time Temperature Precipitation Wind Pressure Humidity
    00:00 +13°C° 0 mm 1 mps 618 mmHg 24%
    01:00 +13°C° 0 mm 2 mps 618 mmHg 25%
    02:00 +13°C° 0 mm 2 mps 618 mmHg 28%
    03:00 +12°C° 0 mm 2 mps 618 mmHg 30%
    04:00 +12°C° 0 mm 2 mps 618 mmHg 27%
    05:00 +13°C° 0 mm 2 mps 618 mmHg 26%
    06:00 +13°C° 0 mm 2 mps 619 mmHg 26%
    07:00 +14°C° 0 mm 2 mps 619 mmHg 25%
    08:00 +15°C° 0 mm 2 mps 620 mmHg 23%
    09:00 +17°C° 0 mm 2 mps 620 mmHg 20%
    10:00 +20°C° 0 mm 1 mps 621 mmHg 17%
    11:00 +20°C° 0 mm 2 mps 621 mmHg 16%
    12:00 +20°C° 0 mm 2 mps 620 mmHg 15%
    13:00 +21°C° 0 mm 2 mps 620 mmHg 14%
    14:00 +21°C° 0 mm 2 mps 620 mmHg 14%
    15:00 +21°C° 0 mm 2 mps 620 mmHg 14%
    16:00 +21°C° 0 mm 2 mps 619 mmHg 14%
    17:00 +19°C° 0 mm 2 mps 619 mmHg 16%
    18:00 +19°C° 0 mm 1 mps 619 mmHg 18%
    19:00 +16°C° 0 mm 1 mps 618 mmHg 20%
    20:00 +16°C° 0 mm 1 mps 618 mmHg 20%
    21:00 +15°C° 0 mm 1 mps 618 mmHg 21%
    22:00 +15°C° 0 mm 1 mps 618 mmHg 21%
    23:00 +14°C° 0 mm 1 mps 618 mmHg 22%

    Tomorrow, 24 October, Wednesday

    Time Temperature Precipitation Wind Pressure Humidity
    00:00 +14°C° 0 mm 1 mps 617 mmHg 22%
    01:00 +13°C° 0 mm 1 mps 617 mmHg 23%
    02:00 +13°C° 0 mm 1 mps 617 mmHg 23%
    03:00 +13°C° 0 mm 1 mps 617 mmHg 23%
    04:00 +12°C° 0 mm 1 mps 617 mmHg 24%
    05:00 +13°C° 0 mm 1 mps 617 mmHg 23%
    06:00 +14°C° 0 mm 1 mps 618 mmHg 23%
    07:00 +15°C° 0 mm 1 mps 619 mmHg 22%
    08:00 +16°C° 0 mm 1 mps 619 mmHg 21%
    09:00 +19°C° 0 mm 1 mps 620 mmHg 20%
    10:00 +20°C° 0 mm 1 mps 621 mmHg 19%
    11:00 +21°C° 0 mm 1 mps 620 mmHg 18%
    12:00 +21°C° 0 mm 2 mps 620 mmHg 18%
    13:00 +23°C° 0 mm 2 mps 620 mmHg 17%
    14:00 +22°C° 0 mm 3 mps 619 mmHg 17%
    15:00 +22°C° 0 mm 3 mps 619 mmHg 17%
    16:00 +22°C° 0 mm 3 mps 619 mmHg 17%
    17:00 +20°C° 0 mm 2 mps 619 mmHg 20%
    18:00 +18°C° 0 mm 2 mps 618 mmHg 22%
    19:00 +18°C° 0 mm 1 mps 618 mmHg 24%
    20:00 +16°C° 0 mm 1 mps 618 mmHg 25%
    21:00 +16°C° 0 mm 1 mps 618 mmHg 26%
    22:00 +15°C° 0 mm 1 mps 618 mmHg 26%
    23:00 +15°C° 0 mm 1 mps 618 mmHg 27%

    Day after tomorrow, 25 October, Thursday

    Time Temperature Precipitation Wind Pressure Humidity
    00:00 +14°C° 0 mm 1 mps 618 mmHg 28%
    01:00 +14°C° 0 mm 1 mps 617 mmHg 28%
    02:00 +14°C° 0 mm 1 mps 617 mmHg 29%
    03:00 +13°C° 0 mm 1 mps 617 mmHg 30%
    04:00 +13°C° 0 mm 1 mps 617 mmHg 31%
    05:00 +13°C° 0 mm 1 mps 618 mmHg 30%
    06:00 +14°C° 0 mm 1 mps 619 mmHg 29%
    07:00 +15°C° 0 mm 1 mps 619 mmHg 28%
    08:00 +16°C° 0 mm 1 mps 620 mmHg 26%
    09:00 +19°C° 0 mm 1 mps 621 mmHg 25%
    10:00 +21°C° 0 mm 1 mps 622 mmHg 23%
    11:00 +21°C° 0 mm 2 mps 621 mmHg 21%
    12:00 +21°C° 0 mm 2 mps 621 mmHg 20%
    13:00 +22°C° 0 mm 3 mps 621 mmHg 19%
    14:00 +22°C° 0 mm 3 mps 621 mmHg 19%
    15:00 +22°C° 0 mm 3 mps 621 mmHg 19%
    16:00 +22°C° 0 mm 4 mps 621 mmHg 19%
    17:00 +20°C° 0 mm 3 mps 620 mmHg 21%
    18:00 +19°C° 0 mm 2 mps 620 mmHg 24%
    19:00 +18°C° 0 mm 1 mps 620 mmHg 26%
    20:00 +18°C° 0 mm 1 mps 620 mmHg 27%
    21:00 +16°C° 0 mm 1 mps 620 mmHg 28%
    22:00 +16°C° 0 mm 1 mps 620 mmHg 28%
    23:00 +15°C° 0 mm 1 mps 620 mmHg 29%

    26 October, Friday

    Time Temperature Precipitation Wind Pressure Humidity
    00:00 +15°C° 0 mm 1 mps 620 mmHg 30%
    01:00 +14°C° 0 mm 2 mps 620 mmHg 30%
    02:00 +14°C° 0 mm 2 mps 620 mmHg 31%
    03:00 +14°C° 0 mm 2 mps 620 mmHg 32%
    04:00 +13°C° 0 mm 2 mps 620 mmHg 33%
    05:00 +14°C° 0 mm 2 mps 620 mmHg 31%
    06:00 +14°C° 0 mm 2 mps 621 mmHg 30%
    07:00 +15°C° 0 mm 1 mps 622 mmHg 29%
    08:00 +18°C° 0 mm 1 mps 623 mmHg 27%
    09:00 +20°C° 0 mm 1 mps 623 mmHg 24%
    10:00 +21°C° 0 mm 1 mps 624 mmHg 21%
    11:00 +22°C° 0 mm 1 mps 624 mmHg 20%
    12:00 +23°C° 0 mm 2 mps 623 mmHg 19%
    13:00 +24°C° 0 mm 2 mps 623 mmHg 18%
    14:00 +24°C° 0 mm 3 mps 623 mmHg 18%
    15:00 +24°C° 0 mm 3 mps 622 mmHg 18%
    16:00 +22°C° 0 mm 3 mps 622 mmHg 18%
    17:00 +21°C° 0 mm 2 mps 622 mmHg 20%
    18:00 +19°C° 0 mm 2 mps 622 mmHg 22%
    19:00 +18°C° 0 mm 1 mps 621 mmHg 25%
    20:00 +18°C° 0 mm 1 mps 621 mmHg 26%
    21:00 +16°C° 0 mm 1 mps 621 mmHg 26%
    22:00 +16°C° 0 mm 1 mps 621 mmHg 27%
    23:00 +16°C° 0 mm 1 mps 621 mmHg 27%

    27 October, Saturday

    Time Temperature Precipitation Wind Pressure Humidity
    00:00 +15°C° 0 mm 1 mps 621 mmHg 28%
    01:00 +15°C° 0 mm 2 mps 621 mmHg 28%
    02:00 +15°C° 0 mm 2 mps 621 mmHg 29%
    03:00 +14°C° 0 mm 2 mps 620 mmHg 30%
    04:00 +14°C° 0 mm 1 mps 620 mmHg 30%
    05:00 +14°C° 0 mm 1 mps 621 mmHg 29%
    06:00 +15°C° 0 mm 1 mps 621 mmHg 28%
    07:00 +15°C° 0 mm 1 mps 622 mmHg 27%
    08:00 +18°C° 0 mm 1 mps 623 mmHg 25%
    09:00 +20°C° 0 mm 1 mps 623 mmHg 23%
    10:00 +22°C° 0 mm 1 mps 624 mmHg 21%
    11:00 +23°C° 0 mm 2 mps 623 mmHg 20%
    12:00 +24°C° 0 mm 2 mps 623 mmHg 19%
    13:00 +25°C° 0 mm 3 mps 623 mmHg 19%
    14:00 +24°C° 0 mm 3 mps 623 mmHg 19%
    15:00 +24°C° 0 mm 3 mps 622 mmHg 19%
    16:00 +24°C° 0 mm 3 mps 622 mmHg 20%
    17:00 +21°C° 0 mm 2 mps 622 mmHg 22%
    18:00 +20°C° 0 mm 2 mps 621 mmHg 25%
    19:00 +19°C° 0 mm 1 mps 621 mmHg 28%
    20:00 +19°C° 0 mm 1 mps 621 mmHg 29%
    21:00 +18°C° 0 mm 1 mps 621 mmHg 30%
    22:00 +16°C° 0 mm 1 mps 621 mmHg 31%
    23:00 +16°C° 0 mm 1 mps 620 mmHg 32%

    28 October, Sunday

    Time Temperature Precipitation Wind Pressure Humidity
    00:00 +16°C° 0 mm 1 mps 620 mmHg 32%
    01:00 +15°C° 0 mm 1 mps 620 mmHg 33%
    02:00 +15°C° 0 mm 1 mps 620 mmHg 33%
    03:00 +15°C° 0 mm 1 mps 619 mmHg 34%
    04:00 +14°C° 0 mm 1 mps 619 mmHg 35%
    05:00 +15°C° 0 mm 1 mps 620 mmHg 33%
    06:00 +15°C° 0 mm 1 mps 620 mmHg 32%
    07:00 +16°C° 0 mm 1 mps 621 mmHg 31%
    08:00 +19°C° 0 mm 1 mps 622 mmHg 28%
    09:00 +21°C° 0 mm 1 mps 622 mmHg 26%
    10:00 +22°C° 0 mm 1 mps 623 mmHg 23%
    11:00 +23°C° 0 mm 1 mps 622 mmHg 23%
    12:00 +24°C° 0 mm 2 mps 622 mmHg 22%
    13:00 +25°C° 0 mm 3 mps 622 mmHg 21%
    14:00 +25°C° 0 mm 3 mps 622 mmHg 21%
    15:00 +24°C° 0 mm 3 mps 621 mmHg 21%
    16:00 +24°C° 0 mm 3 mps 621 mmHg 22%
    17:00 +23°C° 0 mm 2 mps 621 mmHg 25%
    18:00 +20°C° 0 mm 2 mps 621 mmHg 27%
    19:00 +20°C° 0 mm 1 mps 620 mmHg 30%
    20:00 +19°C° 0 mm 1 mps 620 mmHg 31%
    21:00 +19°C° 0 mm 1 mps 620 mmHg 32%
    22:00 +18°C° 0 mm 1 mps 620 mmHg 33%
    23:00 +18°C° 0 mm 1 mps 620 mmHg 35%

    29 October, Monday

    Time Temperature Precipitation Wind Pressure Humidity
    00:00 +16°C° 0 mm 1 mps 620 mmHg 36%
    01:00 +16°C° 0 mm 1 mps 620 mmHg 37%
    02:00 +15°C° 0 mm 1 mps 619 mmHg 39%
    03:00 +15°C° 0 mm 1 mps 619 mmHg 41%
    04:00 +14°C° 0 mm 1 mps 619 mmHg 43%
    05:00 +14°C° 0 mm 1 mps 620 mmHg 43%
    06:00 +15°C° 0 mm 1 mps 620 mmHg 43%
    07:00 +15°C° 0 mm 1 mps 621 mmHg 43%
    08:00 +16°C° 0 mm 1 mps 621 mmHg 40%
    09:00 +18°C° 0 mm 2 mps 622 mmHg 38%
    10:00 +19°C° 0 mm 2 mps 622 mmHg 35%
    11:00 +20°C° 0 mm 3 mps 622 mmHg 33%
    12:00 +21°C° 0 mm 3 mps 621 mmHg 32%
    13:00 +21°C° 0 mm 4 mps 621 mmHg 30%
    14:00 +21°C° 0 mm 4 mps 621 mmHg 31%
    15:00 +20°C° 0 mm 4 mps 621 mmHg 33%
    16:00 +20°C° 0 mm 4 mps 621 mmHg 34%
    17:00 +19°C° 0 mm 3 mps 621 mmHg 36%
    18:00 +18°C° 0 mm 3 mps 621 mmHg 39%
    19:00 +17°C° 0 mm 2 mps 621 mmHg 41%
    20:00 +17°C° 0 mm 2 mps 621 mmHg 42%
    21:00 +16°C° 0 mm 1 mps 621 mmHg 43%
    22:00 +16°C° 0 mm 1 mps 621 mmHg 44%
    23:00 +15°C° 0 mm 1 mps 621 mmHg 46%
    Show more